Location: Newark
(45.9000°N, 9.5667°E)
Time: 11:07:35
(UTC+00:00)

Envisat - Visible Passes

Search period start: 21 August 2019 00:00
Search period end: 31 August 2019 00:00
Orbit: 764 x 766 km, 98.1° (Epoch: 21 August)

Date Brightness Start Highest point End Pass type
(mag) Time Alt. Az. Time Alt. Az. Time Alt. Az.
22 Aug 6.0 19:03:33 10° WSW 19:06:14 14° W 19:08:56 10° NW visible
25 Aug 5.8 18:51:26 10° SW 18:54:51 18° W 18:58:16 10° NW visible
27 Aug 6.5 19:20:36 10° W 19:20:43 10° W 19:20:50 10° W visible
28 Aug 5.7 18:39:33 10° SW 18:43:29 22° W 18:47:26 10° NW visible
30 Aug 6.1 19:07:00 10° WSW 19:09:18 13° W 19:11:37 10° WNW visible
